sat.trackr.live / text

‹ back to catalog

SENTINEL-2C

NORAD 60989 · 2024-157A

PAYLOAD ACTIVE UNKNOWN

§ Identity

Operator
Country
ESA
Launch date
2024-09-05
Launch site
FRGUI
Launch vehicle
Mass (kg)
RCS (m²)

Purposes: earth_obs

External: N2YO · Heavens-Above · Gunter

§ Orbital elements

Epoch: 2026-05-25T03:58:21.781632Z

Period
100.64 min
Inclination
98.5694°
Eccentricity
0.0001421
Mean motion
14.30822491 rev/d
Perigee alt
788.0 km
Apogee alt
790.0 km
Semi-major
7,167.1 km
B*
5.0852e-5
RAAN
220.2723°
Arg perigee
85.4150°
Mean anomaly
274.7195°
Rev number
8,969

§ Raw data

SENTINEL-2C1 60989U 24157A   26145.16552988  .00000090  00000+0  50852-4 0  99952 60989  98.5694 220.2723 0001421  85.4150 274.7195 14.30822491 89695

JSON: /api/v1/satellites/60989 · /tle

For live sub-satellite position, see the globe view (requires WebGL).

§ Visibility from observer

Set your observer location to see the next 7 days of passes ≥ 10°. The values pass through the URL so the page stays shareable.

No JS? Fill the form by hand. The geolocation button needs JavaScript.